Tracking 29892 objects as of 21-Nov-2024
HD Live streaming from Space Station
objects crossing your sky now

CS2

Track CS2 now!
10-day predictions


NORAD ID: 49262
Int'l Code: 2021-088C
Perigee: 512.1 km
Apogee: 531.1 km
Inclination: 97.5 °
Period: 94.9 minutes
Semi major axis: 6892 km
RCS: Unknown
Launch date: September 27, 2021
Source: United States (US)
Launch site: AIR FORCE WESTERN TEST RANGE (AFWTR)
Your satellite tracking list
Your tracking list is empty




NASA's NSSDC Master Catalog

Two Line Element Set (TLE):
1 49262U 21088C   24325.63570933  .00016411  00000-0  82714-3 0  9992
2 49262  97.4660  23.6628 0013820 310.2461  49.7563 15.17152340173009
Source of the keplerian elements: AFSPC